{"data":{"norad_id":65503,"intl_designator":"2025-198M","name":"STARLINK-35126","alt_names":[],"object_type":"PAYLOAD","status":"ACTIVE","operator":null,"country":"US","launch_date":"2025-09-05","launch_site_code":"AFETR","launch_vehicle":null,"mission":null,"orbit_class":"UNKNOWN","rcs_meters":null,"size_class":null,"mass_kg":null,"dimensions":null,"purposes":["comms"],"wikipedia_slug":null,"has_3d_model":false,"image_url":null,"decayed_at":null,"tle_current":{"epoch":"2026-09-20T21:31:44.648256Z","epoch_age_seconds":77631,"freshness":"FRESH","line1":"1 65503U 25198M   26263.89704454  .00018997  00000+0  57144-3 0  9991","line2":"2 65503  53.1571  81.6946 0001479  83.1453 276.9718 15.34427537 58545","mean_motion":15.34427537,"eccentricity":0.0001479,"inclination_deg":53.1571,"raan_deg":81.6946,"arg_perigee_deg":83.1453,"mean_anomaly_deg":276.9718,"bstar":0.00057144,"rev_number":5854,"period_min":93.846073879473,"perigee_km":461.60964749724,"apogee_km":463.63314383068,"semimajor_km":6840.758395664,"source":"CELESTRAK","updated_at":"2026-09-21T09:00:35.643367Z"}}}